Location: Newark
(25.4800°N, 85.7200°E)
Time: 11:46:12
(UTC+00:00)

Vanguard 1 Rocket - Pass Details

Date: 23 August 2019
Orbit: 651 x 4225 km, 34.3° (Epoch: 20 September)

Event Time Altitude Azimuth Distance (km) Brightness Sun altitude
Rises 17:27:44 0° 224° (SW) 4,198 - -51.0°
Reaches altitude 10° 17:31:21 10° 215° (SW) 2,798 - -51.3°
Maximum altitude 17:36:49 34° 152° (SSE) 1,233 - -51.7°
Drops below altitude 10° 17:40:53 10° 86° (E) 2,072 - -52.0°
Sets 17:43:10 0° 76° (ENE) 2,955 - -52.1°
